Portada
METAR-TAF:

METAR-TAF

Aeroports :

Shōnai, Japó

latitud: 38-49N, longitud: 139-47E, altitud: 22 m

Observació

L'informe es va fer fa 18 minuts, a les 09:00 UTC
Vent 4 kt del Oest/Nord-Oest, variant entre Oest i Nord/Nord-Oest
Temperatura 1°C
Humitat 59%
Pressió 1033 hPa
Visibilitat 10 km o més
Escasses núvols a una alçada de 2000 ft
Núvols disperses a una alçada de 3500 ft
Cel ennuvolat a una alçada de 5000 ft

METAR: RJSY 270900Z 29004KT 260V330 9999 FEW020 SCT035 BKN050 01/M06 Q1033

Hora: 18:18 (09:18 UTC)


TAF: manca

Observacions i pronòstics meteorològics de més de 4000 aeroports (METAR i TAF).

Les estacions disponibles són els punts grocs i vermells al mapa.

Posi el ratolí al punt desitjat per veure el nom de l'estació.

Feu clic per veure les observacions i els pronòstics meteorològics.

Per canviar el mapa: feu clic els botons verds amb una creu de color negre per apropar; al botó verd amb un guió per allunyar la imatge; o en les fletxes verdes per a mapes adjacents.


METAR-TAF: